Location: Karaa?a�
(36.7158°N, 30.4165°E)
Time: 09:19:18
(UTC+00:00)

Cosmos 1190 Rocket - Pass Details

Date: 09 April 2020
Orbit: 757 x 779 km, 74.1° (Epoch: 30 May)

Event Time Altitude Azimuth Distance (km) Brightness Sun altitude
Rises 16:54:01 0° 178° (S) 3,245 7.1 -6.0°
Reaches altitude 10° 16:56:30 10° 171° (S) 2,320 6.3 -6.4°
Maximum altitude 17:01:26 42° 102° (ESE) 1,099 4.4 -7.4°
Drops below altitude 10° 17:06:23 10° 33° (NNE) 2,326 6.3 -8.3°
Sets 17:08:52 0° 26° (NNE) 3,254 7.2 -8.8°
